[[{"header":{"parameterUnit":"m.s-1","parameterCategory":1,"la1":30.2991,"la2":30.254,"lo1":-89.0895,"lo2":-89.0444,"dy":0.0017,"dx":0.0017,"nx":28,"ny":28,"refTime":"2023-10-05T21:00:00:Z","depth":0,"parameterNumber":2,"parameterNumberName":"U-component_of_WINDS"},"data":[0,0,0,0,0,0,0,0,0,0,0,0,0,0,0,0,0,0,0,0,0,0,0,0,0,0,0,0,0,0,0,0,0,0,0,0,0,0,0,0,0,0,0,0,0,0,0,0,0,0,0,0,0,0,0,0,0,0,-4.3746,-4.3746,0,-4.3797,-4.3797,-4.3798,-4.3738,-4.3735,-4.3733,-4.3731,-4.3781,-4.3785,-4.3788,0,0,0,0,0,0,0,0,0,0,0,0,0,-4.3595,-4.3598,-4.3746,-4.3746,-4.3747,-4.3796,-4.3797,-4.3798,-4.3738,-4.3735,-4.3733,-4.373,-4.378,-4.3784,-4.3788,0,0,0,0,0,0,0,0,0,0,0,0,0,-4.3655,-4.3599,-4.3745,-4.3723,-4.3722,-4.3796,-4.3797,-4.3798,-4.3739,-4.3735,-4.3732,-4.3729,-4.3779,-4.3784,-4.3789,-4.3888,0,0,-4.3804,-4.3807,0,0,0,0,0,0,0,0,-4.3652,-4.366,-4.3726,-4.3725,-4.3723,-4.3757,-4.3762,-4.3828,-4.3739,-4.3732,-4.3731,-4.3727,-4.3776,-4.3781,-4.3798,-4.389,-4.3892,-4.3805,-4.3808,-4.381,-4.3812,0,0,0,0,0,0,0,-4.3647,-4.3658,-4.3766,-4.3727,-4.3725,-4.371,-4.3715,-4.3775,-4.3772,-4.3732,-4.3728,-4.3735,-4.3775,-4.3793,-4.3799,-4.3893,-4.3805,-4.3809,-4.3813,-4.3815,-4.4068,-4.4071,0,0,0,0,0,0,-4.3646,-4.3655,-4.3764,-4.3767,-4.3678,-4.3716,-4.3721,-4.375,-4.3771,-4.3771,-4.3738,-4.3732,-4.3786,-4.3793,-4.38,-4.3916,-4.381,-4.3815,-4.3818,-4.4064,-4.4069,-4.4073,0,0,0,0,0,0,-4.3643,-4.3656,-4.3762,-4.371,-4.3722,-4.3722,-4.3755,-4.3753,-4.3771,-4.3776,-4.3775,-4.3757,-4.3784,-4.3793,-4.3866,-4.3917,-4.3817,-4.3822,-4.406,-4.4066,-4.4071,-4.4149,0,0,0,0,0,0,-4.3639,-4.3656,-4.3693,-4.3711,-4.3725,-4.3828,-4.3758,-4.3756,-4.378,-4.3773,-4.3793,-4.3794,-4.3782,-4.3859,-4.3871,-4.3922,-4.3826,-4.4055,-4.4063,-4.4069,-4.4141,-4.4156,-4.4169,0,0,0,0,0,-4.3634,-4.3713,-4.3695,-4.3709,-4.3772,-4.3831,-4.3838,-4.3824,-4.3785,-4.3822,-4.3825,-4.3793,-4.391,-4.3867,-4.388,-4.3933,-4.4052,-4.4061,-4.4069,-4.4135,-4.4153,-4.4168,0,0,0,0,0,0,-4.3699,-4.3715,-4.3695,-4.3783,-4.3806,-4.382,-4.3867,-4.3843,-4.3877,-4.3869,-4.3849,-4.3854,-4.3932,-4.3941,-4.3892,-4.403,-4.3975,-4.3986,-4.4021,-4.4038,-4.4051,-4.4046,-4.383,0,0,0,0,0,-4.3724,-4.3771,-4.3782,-4.3857,-4.387,-4.3867,-4.3892,-4.3879,-4.3902,-4.3911,-4.3919,-4.3943,-4.3984,-4.4012,-4.4051,-4.4144,-4.4147,-4.4187,-4.4201,-4.4212,-4.4221,-4.4269,-4.4287,-4.41,-4.41,-4.41,0,0,-4.3775,-4.3789,-4.382,-4.3871,-4.3887,-4.3935,-4.3875,-4.3929,-4.3964,-4.3919,-4.3988,-4.3996,-4.402,-4.4104,-4.4141,-4.4113,-4.4274,-4.4222,-4.4231,-4.4234,-4.428,-4.4297,-4.4313,-4.4105,-4.4104,-4.4103,0,0,-4.3892,-4.3909,-4.3973,-4.3991,-4.4017,-4.4015,-4.4031,-4.405,-4.4053,-4.4123,-4.409,-4.4132,-4.4205,-4.4223,-4.4242,-4.437,-4.4341,-4.4383,-4.4452,-4.45,-4.4515,-4.4528,-4.4571,-4.4587,-4.4393,-4.4393,-4.4393,0,-4.3951,-4.4023,-4.4009,-4.4065,-4.4088,-4.4051,-4.4116,-4.4134,-4.4172,-4.4188,-4.4158,-4.4249,-4.4263,-4.4349,-4.438,-4.4398,-4.4414,-4.4378,-4.4514,-4.4527,-4.4539,-4.458,-4.4596,-4.4398,-4.4397,-4.4397,-4.4396,0,-4.4094,-4.4144,-4.4193,-4.4231,-4.426,-4.432,-4.4315,-4.4346,-4.4332,-4.4333,-4.4404,-4.4421,-4.4462,-4.4483,-4.4469,-4.4568,-4.4549,-4.4517,-4.446,-4.4561,-4.4599,-4.4615,-4.4405,-4.4403,-4.4401,-4.44,0,0,-4.4249,-4.4281,-4.4298,-4.4315,-4.4343,-4.4381,-4.444,-4.4481,-4.4508,-4.4536,-4.4584,-4.4648,-4.4618,-4.464,-4.4629,-4.4671,-4.4769,-4.4634,-4.4634,-4.4656,-4.4877,-4.4898,-4.4917,-4.4752,-4.4755,-4.4757,-4.4874,0,-4.4365,-4.4466,-4.4456,-4.4553,-4.4598,-4.4566,-4.4617,-4.464,-4.4643,-4.4682,-4.4686,-4.4731,-4.469,-4.4703,-4.4744,-4.4748,-4.4812,-4.474,-4.4794,-4.4796,-4.4785,-4.4937,-4.496,-4.5069,-4.4889,-4.4891,-4.4893,0,-4.4511,-4.4545,-4.4646,-4.4667,-4.4686,-4.4732,-4.4769,-4.4808,-4.4833,-4.4833,-4.4859,-4.484,-4.4899,-4.4845,-4.4925,-4.4877,-4.4899,-4.4905,-4.4909,-4.491,-4.4848,-4.4939,-4.5103,-4.5119,-4.4917,-4.4915,-4.4913,0,-4.4611,-4.4683,-4.4752,-4.4768,-4.4795,-4.4828,-4.4841,-4.4863,-4.4888,-4.4922,-4.4938,-4.4978,-4.4999,-4.503,-4.5023,-4.4984,-4.5105,-4.505,-4.5104,-4.5104,-4.5127,-4.5125,-4.5294,-4.5148,-4.5148,-4.5148,-4.5147,0,-4.4739,-4.4801,-4.4797,-4.484,-4.4909,-4.4898,-4.4967,-4.4975,-4.4996,-4.5039,-4.5015,-4.5056,-4.5046,-4.5086,-4.5082,-4.5148,-4.5159,-4.5159,-4.5156,-4.5159,-4.5159,-4.517,-4.5161,-4.5152,-4.5151,-4.515,-4.5149,0,-4.486,-4.486,-4.4933,-4.4954,-4.4961,-4.5011,-4.5028,-4.5068,-4.5071,-4.5126,-4.5138,-4.5142,-4.5189,-4.5186,-4.524,-4.5236,-4.5318,-4.5308,-4.5309,-4.5305,-4.5359,-4.5353,-4.5538,-4.5561,-4.5403,-4.5405,-4.5406,0,-4.4939,-4.4987,-4.5013,-4.504,-4.5055,-4.51,-4.5127,-4.5119,-4.5147,-4.518,-4.5216,-4.5261,-4.5296,-4.5373,-4.538,-4.5421,-4.541,-4.5473,-4.5416,-4.5417,-4.5407,-4.5403,-4.5407,-4.5482,-4.5484,-4.5485,-4.5487,0,-4.5079,-4.5078,-4.5117,-4.5157,-4.5189,-4.522,-4.5248,-4.5273,-4.5267,-4.5301,-4.5349,-4.5377,-4.5431,-4.5476,-4.5515,-4.5528,-4.5506,-4.5505,-4.5519,-4.5521,-4.5518,-4.5518,-4.5335,-4.55,-4.5498,-4.5497,-4.5497,-4.5496,-4.518,-4.522,-4.5245,-4.529,-4.5311,-4.5338,-4.5376,-4.5385,-4.5425,-4.5469,-4.5462,-4.5516,-4.5541,-4.5591,-4.5609,-4.565,-4.5628,-4.5649,-4.5654,-4.5658,-4.5663,-4.5515,-4.5658,-4.5657,-4.5657,-4.5657,-4.5656,0,-4.5316,-4.5331,-4.5373,-4.5413,-4.5449,-4.5428,-4.5458,-4.5489,-4.5536,-4.5562,-4.5598,-4.5653,-4.5697,-4.5709,-4.5751,-4.5782,-4.5773,-4.5793,-4.5789,-4.5792,-4.5682,-4.5664,-4.58,-4.58,-4.5799,-4.5799,-4.5799,-4.5799,-4.5391,-4.5458,-4.546,-4.5536,-4.5551,-4.5603,-4.5622,-4.5648,-4.5668,-4.5731,-4.5767,-4.5776,-4.5796,-4.5839,-4.5879,-4.5881,-4.5896,-4.592,-4.5918,-4.5814,-4.58,-4.5786,-4.5769,-4.5924,-4.5924,-4.6024,-4.6025,-4.6026]},{"header":{"parameterUnit":"m.s-1","parameterCategory":1,"la1":30.2991,"la2":30.254,"lo1":-89.0895,"lo2":-89.0444,"dy":0.0017,"dx":0.0017,"nx":28,"ny":28,"refTime":"2023-10-05T21:00:00:Z","depth":0,"parameterNumber":3,"parameterNumberName":"V-component_of_WINDS"},"data":[0,0,0,0,0,0,0,0,0,0,0,0,0,0,0,0,0,0,0,0,0,0,0,0,0,0,0,0,0,0,0,0,0,0,0,0,0,0,0,0,0,0,0,0,0,0,0,0,0,0,0,0,0,0,0,0,0,0,2.0272,2.0272,0,2.0288,2.0289,2.0289,2.03,2.03,2.03,2.03,2.0314,2.0315,2.0315,0,0,0,0,0,0,0,0,0,0,0,0,0,2.0248,2.0248,2.0272,2.0272,2.0272,2.0288,2.0289,2.0289,2.03,2.03,2.03,2.03,2.0314,2.0315,2.0315,0,0,0,0,0,0,0,0,0,0,0,0,0,2.0261,2.0248,2.0272,2.028,2.0281,2.0288,2.0289,2.0289,2.03,2.03,2.03,2.03,2.0314,2.0315,2.0315,2.0315,0,0,2.0316,2.0316,0,0,0,0,0,0,0,0,2.026,2.0261,2.0278,2.0279,2.028,2.0292,2.0285,2.0298,2.03,2.0293,2.03,2.03,2.0307,2.0308,2.031,2.0316,2.0316,2.0316,2.0317,2.0317,2.0317,0,0,0,0,0,0,0,2.0259,2.0261,2.0278,2.0279,2.028,2.0282,2.0284,2.0288,2.0299,2.0293,2.0294,2.0296,2.0307,2.031,2.0311,2.0316,2.0316,2.0317,2.0317,2.0317,2.0324,2.0324,0,0,0,0,0,0,2.0257,2.026,2.0278,2.0279,2.027,2.0282,2.0284,2.0288,2.0299,2.03,2.0296,2.0297,2.0309,2.031,2.0311,2.0313,2.0317,2.0317,2.0317,2.0324,2.0324,2.0324,0,0,0,0,0,0,2.0257,2.0259,2.0277,2.027,2.0272,2.0283,2.0287,2.0289,2.0291,2.0301,2.0302,2.0297,2.0309,2.0311,2.0315,2.0314,2.0317,2.0318,2.0324,2.0324,2.0324,2.0316,0,0,0,0,0,0,2.0256,2.0258,2.0259,2.027,2.0273,2.028,2.0287,2.0289,2.0292,2.0293,2.0302,2.0304,2.031,2.0314,2.0315,2.0314,2.0318,2.0324,2.0324,2.0324,2.0316,2.0315,2.0314,0,0,0,0,0,2.0255,2.0255,2.0259,2.0261,2.0273,2.028,2.0282,2.029,2.0292,2.0293,2.0299,2.0303,2.0314,2.0314,2.0315,2.0315,2.0324,2.0324,2.0324,2.0316,2.0315,2.0315,0,0,0,0,0,0,2.0242,2.0256,2.0261,2.0264,2.0271,2.0282,2.0283,2.0288,2.0293,2.0294,2.0302,2.0304,2.0307,2.0311,2.0312,2.0316,2.0319,2.032,2.0313,2.0312,2.0312,2.0311,2.0319,0,0,0,0,0,2.024,2.0245,2.0257,2.0259,2.0262,2.0272,2.0275,2.0281,2.0288,2.029,2.0297,2.0303,2.0307,2.031,2.0315,2.0317,2.0319,2.0317,2.0316,2.0316,2.0316,2.0318,2.0317,2.0323,2.0323,2.0323,0,0,2.0235,2.0243,2.0246,2.0256,2.0262,2.0267,2.0274,2.0278,2.0282,2.0291,2.0295,2.03,2.0307,2.0311,2.0312,2.0314,2.0315,2.0316,2.0315,2.0315,2.0318,2.0317,2.0316,2.0323,2.0323,2.0323,0,0,2.0228,2.0235,2.0238,2.0244,2.0254,2.0261,2.0262,2.0272,2.0276,2.0281,2.0288,2.0292,2.03,2.0305,2.0309,2.0306,2.0311,2.0307,2.0303,2.0306,2.0305,2.0305,2.0304,2.0304,2.0307,2.0307,2.0307,0,2.022,2.0229,2.0238,2.0243,2.0248,2.0258,2.0261,2.0266,2.0276,2.0279,2.0281,2.0292,2.0298,2.0303,2.0302,2.0305,2.0306,2.0306,2.0305,2.0304,2.0304,2.0304,2.0303,2.0307,2.0307,2.0307,2.0307,0,2.0219,2.0225,2.0226,2.0237,2.0242,2.0246,2.0256,2.026,2.0265,2.0272,2.0277,2.0284,2.0291,2.0293,2.0297,2.0299,2.03,2.0303,2.0307,2.0303,2.0303,2.0303,2.0306,2.0306,2.0307,2.0307,0,0,2.0203,2.0222,2.0222,2.0228,2.024,2.0244,2.0249,2.0257,2.026,2.0267,2.0271,2.0278,2.0282,2.0286,2.0292,2.0293,2.0292,2.0297,2.0297,2.0296,2.0294,2.0292,2.0291,2.0295,2.0295,2.0295,2.0294,0,2.0199,2.0208,2.0218,2.0224,2.023,2.024,2.0244,2.0251,2.0258,2.0263,2.027,2.0275,2.028,2.0282,2.0285,2.0292,2.0292,2.0292,2.0298,2.0298,2.0296,2.0291,2.0288,2.0286,2.0294,2.0294,2.0294,0,2.0194,2.0203,2.021,2.0223,2.0225,2.0229,2.0238,2.0243,2.0252,2.0257,2.0262,2.0269,2.0274,2.0277,2.0284,2.0284,2.0288,2.0291,2.0291,2.0292,2.0296,2.0292,2.0286,2.0286,2.0294,2.0294,2.0294,0,2.0183,2.0196,2.0202,2.0206,2.0222,2.0224,2.023,2.024,2.0245,2.0252,2.0255,2.0263,2.0267,2.0272,2.0281,2.0282,2.0287,2.0291,2.0291,2.029,2.0291,2.0291,2.0285,2.0293,2.0293,2.0293,2.0293,0,2.0176,2.018,2.0197,2.0201,2.0206,2.0217,2.0221,2.0228,2.0237,2.0242,2.0251,2.0255,2.0266,2.0271,2.0278,2.0283,2.0284,2.0288,2.029,2.0287,2.0287,2.0289,2.029,2.0293,2.0293,2.0293,2.0293,0,2.0164,2.0176,2.0183,2.0198,2.0202,2.0205,2.0217,2.0221,2.0229,2.0235,2.0237,2.0248,2.0256,2.0265,2.0274,2.0279,2.0283,2.0285,2.028,2.0281,2.0281,2.0281,2.0277,2.0277,2.0284,2.0284,2.0284,0,2.0159,2.0163,2.0179,2.0184,2.019,2.0197,2.0203,2.0214,2.022,2.0231,2.0234,2.0242,2.0249,2.026,2.0269,2.0276,2.0279,2.0277,2.028,2.0278,2.0279,2.0279,2.028,2.0276,2.0276,2.0276,2.0276,0,2.015,2.0156,2.0164,2.0175,2.0182,2.019,2.0199,2.0202,2.0215,2.0221,2.0229,2.0235,2.0246,2.0254,2.0263,2.0268,2.0274,2.0275,2.0276,2.0273,2.027,2.0272,2.0279,2.0275,2.0275,2.0275,2.0275,2.0275,2.0141,2.0146,2.0158,2.0167,2.0176,2.0184,2.0189,2.0198,2.0206,2.0216,2.0223,2.0231,2.0241,2.0254,2.0259,2.0266,2.0268,2.0268,2.0268,2.0268,2.0268,2.027,2.0267,2.0267,2.0267,2.0267,2.0267,0,2.0133,2.0142,2.015,2.0163,2.0171,2.0178,2.0188,2.0193,2.0201,2.021,2.0218,2.0228,2.0236,2.0246,2.0255,2.0258,2.0261,2.026,2.026,2.0261,2.0265,2.0264,2.0258,2.0258,2.0258,2.0258,2.0258,2.0258,2.0129,2.0137,2.0145,2.0157,2.0166,2.0175,2.0181,2.0188,2.0196,2.0207,2.0215,2.0222,2.0232,2.0242,2.025,2.0252,2.0255,2.0253,2.0257,2.026,2.0261,2.0262,2.0261,2.0254,2.0254,2.0253,2.0253,2.0253]}]]